Overview Statistics Trail Chart Weather Telemetry Raw packets
 

This is the latest recevied weather packets stored in our database for station/object KB4JAC-13. If no packets are shown the sender has not sent any weather packets the latest 10 day(s).

<< 1 2 3 4 >>
Time Temp. Humidity Pressure Rain* Wind** Luminosity Snow
1788578717 26.11° C 93% 989.7 hPa 0 mm - - -
1788578116 26.11° C 92% 989.6 hPa 0 mm - - -
1788577515 26.67° C 92% 989.8 hPa 0 mm - - -
1788576914 26.11° C 92% 990.1 hPa 0 mm - - -
1788576313 26.11° C 92% 990.1 hPa 0 mm - - -
1788575712 26.11° C 91% 990.2 hPa 0 mm - - -
1788575111 26.67° C 91% 990 hPa 0 mm - - -
1788574510 26.67° C 90% 990 hPa 0 mm - - -
1788573909 26.67° C 89% 989.9 hPa 0 mm - - -
1788573308 27.22° C 88% 989.9 hPa 0 mm - - -
1788572707 27.22° C 87% 989.9 hPa 0 mm - - -
1788572106 27.22° C 86% 989.7 hPa 0 mm - - -
1788571505 27.22° C 85% 989.9 hPa 0 mm - - -
1788570905 27.78° C 84% 989.6 hPa 0 mm - - -
1788570304 27.78° C 83% 989.7 hPa 0 mm - - -
1788569703 27.78° C 82% 989.4 hPa 0 mm - - -
1788569102 28.33° C 81% 989.5 hPa 0 mm - - -
1788568501 28.33° C 81% 989.2 hPa 0 mm - - -
1788567900 28.89° C 80% 989.3 hPa 0 mm - - -
1788567299 28.89° C 78% 989.2 hPa 0 mm - - -
1788566698 29.44° C 76% 989.2 hPa 0 mm - - -
1788566098 30° C 74% 989.2 hPa 0 mm - - -
1788565497 30.56° C 71% 989.2 hPa 0 mm - - -
1788564897 31.11° C 69% 989 hPa 0 mm - - -
1788564296 32.22° C 67% 988.7 hPa 0 mm - - -

* Rain since midnight (hover to see other rain measurements)
** Current wind speed in m/s (hover to see current wind gust speed)